ATLAS 5 CENTAUR DEB, 43972

Orbit data source: Space-Track

ATLAS 5 CENTAUR DEB, 43972 is space debris in HEO originally from a launch on Wed, 17 Sep 2014 UTC launched from the Air Force Eastern Test Range (AFETR). Debris objects in space refer to the collection of defunct objects orbiting the Earth. Examples of debris include non-operational satellites, rocket bodies, and fragments generated from explosions, collisions, or faulty payload assembly.

Loading next visibility...
ATLAS 5 CENTAUR DEB details
Identifier
43972, 2014-055AB
Orbit
HEO
Last TLE update1 day ago
Origin
Flag of USULA (US)
ManufacturerUnknown
MissionSpacecraft
Bus & MotorUnknown
MassUnknown
Launch date (UTC)
2014-09-17 (10 years ago)
Launch vehicleUnknown
Launch site
Air Force Eastern Test Range (AFETR)
Object type
Payload
Rocket body
Debris
Shape & HBRUnknown
Radar Cross SectionMedium (>0.1 m² and <1 m²)

Expand to show TLE details & history

TLE from 1 day ago
0 ATLAS 5 CENTAUR DEB
1 43972U 14055AB  24360.09578923 -.00000025  00000-0  00000-0 0  9996
2 43972  19.6169 197.4120 4878020  71.3100 334.4296  1.85395419 42725
Epoch: 2024-12-25T02:17Z
Definitive object data (Epoch: 2024-12-25T02:17:56.189Z)
Latitude-0.00002°
Longitude68.86488°
Altitude12,038.304 km
Speed5.39 km/s
True Right ascension13h 09m 46s
True Declination0° 00' 00"
Sunlit
Object was in daylight at TLE epoch
Visualization TLE readout
Latitude-16.02181°
Longitude-57.60106°
Altitude33,763.173 km
Speed2.371 km/s
Apparent Right ascension04h 15m 19s
Apparent Declination-22° 05' 13"
Sunlit
Object is in daylight
Visualization observer readout
Local Sidereal Time09:29:17
Azimuth245.854° WSW
Elevation-5.709°
Doppler factor1
Orbital elements
Apogee altitude35,268.353 km
Perigee altitude7,959.288 km
Semi-major axis27,991.958 km
Eccentricity0.487802
Inclination19.6169°
RAAN197.412°
Arg. of periapsis71.31°
True anomaly288.88422°
Mean anomaly334.4296°
Eccentric anomaly314.49235°
Mean motion0.46344 °/min
BSTARUnknown
Orbital period776.8 mins
Loading maneuver chart data...

ATLAS 5 CENTAUR DEB Visibility forecast

Observer location: undefined°, undefined

Span
Click to sort rows by Start time (UTC) header in descending order
Start Az.
Max El. time (UTC)
Max El. Az.
Max El.
End time (UTC)
End Az.
101 mins2024-12-26 17:09:09.094Z241.545° WSW2024-12-26 18:01:09.094Z171.223° S38.335°2024-12-26 18:50:09.094Z98.331° ESE
|